Date String (YYYY-MM-DD hh:mm:ss) UTC,Instrument flags,absolute air pressure of the measurement (hPa),sample flow rate (lpm),inlet stack bypass flow (lpm),air temperature of the measurement (°C),ambient temperature measured by the external sensor (°C),aerosol sample conditioner tube jacket temperature (°C),OPC LED temperature (°C),internal box temperature (°C),relative humidity of the measurement (%),span deviation,mass concentration of particles derived from Lorenz-Mie calculation of OPC scattering (μg/m³),mass concentration of particles derived from Lorenz-Mie calculation of OPC scattering (μg/m³),mass concentration of particles derived from Lorenz-Mie calculation of OPC scattering (μg/m³)
DateTimeUTC,F1_M11,P_M11,Q1_M11,Q2_M11,T1_M11,T2_M11,T3_M11,T4_M11,T5_M11,U1_M11,ZSPAN_M11,X2_M11,X0_M11,X1_M11
2024-02-24 18:00:00,SystemResetWarning,0826.3,4.99,000.00,020.2,019.6,000.0,028.2,021.8,06.0,0000.0,0002.82,0009.31,0000.88
2024-02-24 18:01:00,SystemResetWarning,0826.6,5.00,000.00,020.2,019.6,000.0,028.2,021.8,05.7,0000.0,0002.84,0009.33,0000.88
2024-02-24 18:02:00,SystemResetWarning,0826.5,5.00,000.00,020.2,019.6,000.0,028.2,021.8,05.7,0000.0,0002.86,0009.84,0000.89
2024-02-24 18:03:00,SystemResetWarning,0826.5,5.01,000.00,020.2,019.6,000.0,028.2,021.8,05.8,0000.0,0002.94,0010.65,0000.90
2024-02-24 18:04:00,SystemResetWarning,0826.3,5.00,000.00,020.2,019.6,000.0,028.2,021.8,05.8,0000.0,0002.89,0010.94,0000.90
2024-02-24 18:05:00,SystemResetWarning,0826.4,5.00,000.00,020.2,019.6,000.0,028.2,021.8,05.8,0000.0,0002.85,0010.78,0000.89
2024-02-24 18:06:00,SystemResetWarning,0826.5,5.00,000.00,020.2,019.6,000.0,028.3,021.8,05.9,0000.0,0002.85,0010.72,0000.86
2024-02-24 18:07:00,SystemResetWarning,0826.4,5.00,000.00,020.2,019.6,000.0,028.3,021.8,05.8,0000.0,0002.87,0010.13,0000.85
2024-02-24 18:08:00,SystemResetWarning,0826.6,4.99,000.00,020.2,019.6,000.0,028.3,021.8,05.8,0000.0,0002.86,0010.07,0000.84
2024-02-24 18:09:00,SystemResetWarning,0826.6,4.99,000.00,020.2,019.7,000.0,028.3,021.8,06.0,0000.0,0002.87,0010.17,0000.83
2024-02-24 18:10:00,SystemResetWarning,0826.6,5.00,000.00,020.2,019.7,000.0,028.3,021.8,06.1,0000.0,0002.79,0009.97,0000.82
2024-02-24 18:11:00,SystemResetWarning,0826.6,5.01,000.00,020.2,019.7,000.0,028.3,021.8,05.7,0000.0,0002.81,0009.91,0000.82
2024-02-24 18:12:00,SystemResetWarning,0826.3,5.00,000.00,020.2,019.7,000.0,028.3,021.9,05.8,0000.0,0002.73,0009.95,0000.80
2024-02-24 18:13:00,SystemResetWarning,0826.3,5.01,000.00,020.3,019.7,000.0,028.3,021.9,05.9,0000.0,0002.68,0009.48,0000.80
2024-02-24 18:14:00,SystemResetWarning,0826.5,4.99,000.00,020.3,019.7,000.0,028.3,021.9,05.8,0000.0,0002.66,0008.24,0000.80
2024-02-24 18:15:00,SystemResetWarning,0826.3,5.00,000.00,020.3,019.7,000.0,028.3,021.9,05.8,0000.0,0002.68,0007.83,0000.79
2024-02-24 18:16:00,SystemResetWarning,0826.3,4.99,000.00,020.3,019.7,000.0,028.3,021.8,06.1,0000.0,0002.66,0007.97,0000.77
2024-02-24 18:17:00,SystemResetWarning,0826.2,5.00,000.00,020.3,019.7,000.0,028.4,021.9,05.9,0000.0,0002.57,0007.98,0000.76
2024-02-24 18:18:00,SystemResetWarning,0826.3,5.00,000.00,020.3,019.7,000.0,028.4,021.9,05.7,0000.0,0002.53,0008.12,0000.76
2024-02-24 18:19:00,SystemResetWarning,0826.3,5.01,000.00,020.3,019.7,000.0,028.4,021.9,05.8,0000.0,0002.52,0009.02,0000.75
2024-02-24 18:20:00,SystemResetWarning,0826.4,5.01,000.00,020.3,019.7,000.0,028.4,021.9,05.8,0000.0,0002.55,0008.79,0000.74
2024-02-24 18:21:00,SystemResetWarning,0826.2,5.00,000.00,020.3,019.7,000.0,028.4,021.9,05.7,0000.0,0002.54,0008.73,0000.74
2024-02-24 18:22:00,SystemResetWarning,0826.3,5.00,000.00,020.3,019.7,000.0,028.4,021.9,05.6,0000.0,0002.49,0008.65,0000.73
2024-02-24 18:23:00,SystemResetWarning,0826.3,5.00,000.00,020.3,019.7,000.0,028.4,021.9,05.6,0000.0,0002.49,0008.36,0000.74
2024-02-24 18:24:00,SystemResetWarning,0826.1,4.99,000.00,020.3,019.8,000.0,028.4,021.9,05.8,0000.0,0002.43,0008.28,0000.73
2024-02-24 18:25:00,SystemResetWarning,0826.3,5.00,000.00,020.3,019.8,000.0,028.4,021.9,05.7,0000.0,0002.38,0008.64,0000.71
2024-02-24 18:26:00,SystemResetWarning,0826.2,5.01,000.00,020.3,019.8,000.0,028.4,022.0,05.8,0000.0,0002.38,0008.80,0000.71
2024-02-24 18:27:00,SystemResetWarning,0826.1,5.01,000.00,020.3,019.8,000.0,028.4,022.0,05.8,0000.0,0002.40,0008.92,0000.72
2024-02-24 18:28:00,SystemResetWarning,0826.2,5.00,000.00,020.4,019.8,000.0,028.5,022.0,05.8,0000.0,0002.45,0009.83,0000.72
2024-02-24 18:29:00,SystemResetWarning,0826.1,4.99,000.00,020.4,019.8,000.0,028.5,022.0,05.7,0000.0,0002.50,0010.36,0000.71
2024-02-24 18:30:00,SystemResetWarning,0826.0,5.00,000.00,020.4,019.8,000.0,028.5,022.0,05.7,0000.0,0002.53,0009.92,0000.72
2024-02-24 18:31:00,SystemResetWarning,0826.2,4.99,000.00,020.4,019.8,000.0,028.5,022.0,05.9,0000.0,0002.48,0009.87,0000.73
2024-02-24 18:32:00,SystemResetWarning,0826.0,5.01,000.00,020.4,019.8,000.0,028.5,022.0,06.0,0000.0,0002.53,0010.12,0000.73
2024-02-24 18:33:00,SystemResetWarning,0826.0,5.01,000.00,020.4,019.8,000.0,028.5,022.0,05.8,0000.0,0002.49,0010.36,0000.74
2024-02-24 18:34:00,SystemResetWarning,0826.1,5.00,000.00,020.4,019.8,000.0,028.5,022.0,05.8,0000.0,0002.51,0010.48,0000.74
2024-02-24 18:35:00,SystemResetWarning,0826.0,4.99,000.00,020.4,019.8,000.0,028.5,022.0,05.9,0000.0,0002.51,0010.74,0000.74
2024-02-24 18:36:00,SystemResetWarning,0826.0,5.00,000.00,020.4,019.8,000.0,028.5,022.0,06.0,0000.0,0002.53,0011.11,0000.74
2024-02-24 18:37:00,SystemResetWarning,0826.0,4.99,000.00,020.4,019.8,000.0,028.5,022.0,05.9,0000.0,0002.61,0012.32,0000.75
2024-02-24 18:38:00,SystemResetWarning,0826.0,5.00,000.00,020.4,019.8,000.0,028.5,022.0,05.9,0000.0,0002.70,0013.13,0000.75
2024-02-24 18:39:00,SystemResetWarning,0826.0,4.99,000.00,020.4,019.9,000.0,028.5,022.0,06.0,0000.0,0002.67,0012.92,0000.74
2024-02-24 18:40:00,SystemResetWarning,0825.9,5.00,000.00,020.5,019.9,000.0,028.5,022.1,06.0,0000.0,0002.62,0012.45,0000.76
2024-02-24 18:41:00,SystemResetWarning,0825.9,5.01,000.00,020.5,019.9,000.0,028.6,022.0,06.1,0000.0,0002.62,0011.78,0000.76
2024-02-24 18:42:00,SystemResetWarning,0825.9,5.00,000.00,020.5,019.9,000.0,028.6,022.0,06.0,0000.0,0002.72,0012.06,0000.76
2024-02-24 18:43:00,SystemResetWarning,0826.0,5.00,000.00,020.5,019.9,000.0,028.6,022.1,06.0,0000.0,0002.75,0012.03,0000.77
2024-02-24 18:44:00,SystemResetWarning,0825.9,4.99,000.00,020.5,019.9,000.0,028.6,022.1,06.2,0000.0,0002.82,0011.94,0000.77
2024-02-24 18:45:00,SystemResetWarning,0825.9,5.00,000.00,020.5,019.9,000.0,028.6,022.1,06.1,0000.0,0002.76,0011.83,0000.77
2024-02-24 18:46:00,SystemResetWarning,0825.8,5.00,000.00,020.5,019.9,000.0,028.6,022.1,06.2,0000.0,0002.77,0012.37,0000.77
2024-02-24 18:47:00,SystemResetWarning,0825.8,5.00,000.00,020.5,019.9,000.0,028.6,022.1,06.0,0000.0,0002.81,0012.21,0000.77
2024-02-24 18:48:00,SystemResetWarning,0825.8,5.00,000.00,020.5,019.9,000.0,028.6,022.1,06.0,0000.0,0002.68,0011.68,0000.76
2024-02-24 18:49:00,SystemResetWarning,0825.8,5.01,000.00,020.5,019.9,000.0,028.6,022.1,06.0,0000.0,0002.55,0011.23,0000.76
2024-02-24 18:50:00,SystemResetWarning,0825.8,5.01,000.00,020.5,019.9,000.0,028.6,022.1,05.8,0000.0,0002.59,0011.58,0000.77
2024-02-24 18:51:00,SystemResetWarning,0825.7,4.99,000.00,020.5,019.9,000.0,028.6,022.1,05.9,0000.0,0002.64,0012.51,0000.77
2024-02-24 18:52:00,SystemResetWarning,0825.8,5.00,000.00,020.5,019.9,000.0,028.7,022.1,05.9,0000.0,0002.66,0012.53,0000.78
2024-02-24 18:53:00,SystemResetWarning,0825.8,4.99,000.00,020.6,019.9,000.0,028.7,022.1,06.1,0000.0,0002.62,0012.70,0000.79
2024-02-24 18:54:00,SystemResetWarning,0825.9,5.01,000.00,020.6,020.0,000.0,028.7,022.2,06.3,0000.0,0002.65,0013.58,0000.78
2024-02-24 18:55:00,SystemResetWarning,0825.8,5.01,000.00,020.6,020.0,000.0,028.7,022.2,06.2,0000.0,0002.68,0014.05,0000.79
2024-02-24 18:56:00,SystemResetWarning,0825.8,5.01,000.00,020.6,020.0,000.0,028.7,022.2,06.1,0000.0,0002.81,0015.30,0000.79
2024-02-24 18:57:00,SystemResetWarning,0825.8,5.00,000.00,020.6,020.0,000.0,028.7,022.2,06.1,0000.0,0002.97,0015.19,0000.80
2024-02-24 18:58:00,SystemResetWarning,0825.8,5.00,000.00,020.6,020.0,000.0,028.7,022.2,05.9,0000.0,0003.16,0015.90,0000.81
2024-02-24 18:59:00,SystemResetWarning,0825.8,5.00,000.00,020.6,020.0,000.0,028.7,022.2,05.8,0000.0,0003.24,0015.79,0000.83
